Погода в Кончезеро

Россия / Республика Карелия     62°07′40″N   34°00′28″E
темп.,
°C
ветер,
м/с
пор.,
м/с
влажн.,
%
обл.,
%
осадки,
мм/ч
давл.,
гПа
погр.,
м
26 июля, пн
пн2600:00+17з116592 0.0 101716
03:00+14зюз247612 0.0 101880
06:00+16з176899 0.0 1018221
09:00+20сз365554 0.0 1018573
12:00+26ссз483687 0.0 10182590
15:00+24ссз2643100 0.0 10181532
18:00+22ссв245259 0.0 1018216
21:00+18с116560 0.0 101911
27 июля, вт
вт2700:00+14з118120 0.0 102010
03:00+13св118649 0.0 102110
06:00+14в1279100 0.0 102185
09:00+19вюв225984 0.0 1021555
12:00+24вюв11430 0.0 10201021
15:00+27ссв243323 0.0 10182173
18:00+26в12337 0.0 10171669
21:00+19ю25643 0.0 1017101
28 июля, ср
ср2800:00+15юв1183100 0.0 101711
03:00+14ююз119237 0.0 101617
06:00+16юз15855 0.1 1014157
09:00+23з25514 0.1 1012624
12:00+28з253371 0.0 10102507
15:00+27зюз243675 0.0 10081124
18:00+23в1246100 0.1 100762
21:00+20ююз225841 0.1 100626
29 июля, чт
чт2900:00+18зюз116019 0.0 100512
03:00+16з116820 0.0 100311
06:00+17з1166100 0.0 100218
09:00+23ююз2446100 0.0 1001527
12:00+17юз3890100 0.8 1000274
15:00+20ю499075 3.6 999687
18:00+20юз41080100 1.9 996923
21:00+17юз41191100 3.0 995503
30 июля, пт
пт3000:00+17юз5138868 0.1 995863
03:00+17юз61477100 0.2 9941299
06:00+16зюз61394100 0.8 9941119
09:00+15зюз61393100 2.1 997883
12:00+23з5104623 0.0 9991780
15:00+25зюз6931100 0.0 9992378
18:00+24зюз483999 0.0 10002104
21:00+21юз3953100 0.0 1000683